Flag for China Weather past 2 weeks in Shenyang, Liaoning, China

Now
75 °F

Passing clouds.


Feels Like: 76 °F
Forecast: 58 / 85 °F
Wind: 8 mph from Northwest

Location: Shenyang / Taoxian

Current Time: May 30, 2015 at 1:35:09 PM

Latest Report: May 30, 2015 at 1:00 PM


Visibility: N/A

Pressure: 29.74 "Hg

Humidity: 22%

Dew point: 34 °F

Location of ShenyangLocation

Historic Weather in Shenyang — Graph

°F

Shenyang temperature yesterday

Maximum temperature yesterday: 73 °F (at 8:30 AM)
Minimum temperature yesterday: 59 °F (at 10:00 PM)
Average temperature yesterday: 66 °F

Past Weeks' High & Low Weather Summary

 TemperatureHumidityPressure
High90 °F (May 25, 2:00 PM)100% (May 29, 10:00 PM)29.95 "Hg (May 29, 10:00 PM)
Low45 °F (May 20, 3:00 AM)12% (May 15, 1:00 PM)29.47 "Hg (May 17, 3:00 PM)
Average69 °F48%29.70 "Hg
* Reported May 15 12:00 Noon — May 30 12:30 PM, Shenyang, Weather by CustomWeather, © 2015

Note: Actual official high and low records may vary slightly from our data, if they occured in-between our weather recording intervals... More about our weather records

Advertising

Shenyang weather history for previous 24 hours

 ConditionsComfort  
Time TempWeatherWind HumidityBarometerVisibility
12:30 PM
Sat, May 30
73 °FPassing clouds.10 mph23%29.74 "HgN/A
12:00 PM73 °FPassing clouds.6 mph27%29.77 "HgN/A
11:30 AM72 °FPassing clouds.10 mph31%29.77 "HgN/A
11:00 AM72 °FPassing clouds.10 mph31%29.80 "HgN/A
10:30 AM70 °FPassing clouds.10 mph31%29.80 "HgN/A
10:00 AM70 °FPassing clouds.10 mph31%29.80 "HgN/A
9:30 AM68 °FPassing clouds.8 mph35%29.77 "HgN/A
9:00 AM68 °FPassing clouds.8 mph38%29.80 "HgN/A
8:30 AM66 °FPassing clouds.8 mph40%29.80 "HgN/A
8:00 AM66 °FSunny.1 mph43%29.77 "Hg10 mi
7:30 AM63 °FPassing clouds.3 mph49%29.80 "HgN/A
7:00 AM61 °FSunny.1 mph77%29.80 "Hg10 mi
6:30 AM59 °FFog.1 mph94%29.77 "Hg3 mi
6:00 AM59 °FFog.1 mph94%29.77 "Hg1 mi
5:30 AM57 °FFog.1 mph100%29.77 "Hg1 mi
4:30 AM59 °FFog.No wind100%29.77 "Hg0 mi
4:00 AM59 °FFog.No wind94%29.77 "Hg0 mi
3:30 AM57 °FFog.1 mph100%29.77 "Hg0 mi
3:00 AM57 °FFog.1 mph94%29.77 "Hg0 mi
2:30 AM57 °FFog.1 mph100%29.77 "Hg0 mi
2:00 AM59 °FFog.1 mph100%29.74 "Hg1 mi
1:30 AM59 °FFog.1 mph100%29.74 "Hg1 mi
1:00 AM59 °FFog.1 mph94%29.74 "Hg1 mi
12:30 AM59 °FFog.3 mph100%29.74 "Hg1 mi
12:00 AM57 °FFog.No wind94%29.77 "Hg1 mi
11:30 PM
Fri, May 29
59 °FFog.1 mph100%29.74 "Hg1 mi
11:00 PM61 °FFog.1 mph94%29.74 "Hg1 mi
10:30 PM61 °FFog.No wind94%29.74 "Hg1 mi
10:00 PM59 °FFog.1 mph100%29.74 "Hg1 mi
9:30 PM63 °FFog.1 mph94%29.74 "Hg2 mi
9:00 PM63 °FFog.1 mph94%29.74 "Hg2 mi
8:30 PM63 °FFog.1 mph94%29.71 "Hg2 mi
8:00 PM64 °FFog.1 mph88%29.71 "Hg2 mi
7:30 PM64 °FFog.1 mph88%29.71 "Hg2 mi
7:00 PM64 °FFog.13 mph94%29.71 "Hg2 mi
6:30 PM64 °FFog.1 mph88%29.71 "Hg2 mi
6:00 PM64 °FFog.3 mph94%29.71 "Hg3 mi
5:30 PM64 °FFog.8 mph94%29.68 "Hg3 mi
5:00 PM64 °FOvercast.13 mph94%29.68 "Hg4 mi
4:30 PM64 °FOvercast.8 mph88%29.68 "Hg4 mi
4:00 PM64 °FSprinkles. Partly sunny.6 mph88%29.68 "Hg4 mi
3:30 PM64 °FSprinkles. Fog.8 mph88%29.71 "Hg3 mi
3:00 PM64 °FSprinkles. Fog.6 mph94%29.74 "Hg2 mi
2:30 PM66 °FSprinkles. Partly sunny.10 mph83%29.74 "Hg4 mi
2:00 PM66 °FSprinkles. Partly sunny.8 mph83%29.71 "Hg4 mi
1:30 PM66 °FSprinkles. Partly sunny.8 mph83%29.71 "Hg4 mi
1:00 PM66 °FSprinkles. Partly sunny.6 mph88%29.71 "Hg4 mi
Weather by CustomWeather, © 2015

See weather overviewHow to use our weather pages